Hourly Data Report for May 08, 2020

STE-ANNE-DE-BELLEVUE 1
QUEBEC
Current Station Operator: ECCC - MSC

45°25'38.000" N
73°55'45.000" W
39.00 m
702FHL8
71377
WVQ

Download Data

Hourly Data (May 2020)
Hourly Data Report for May 8, 2020
TIME
LST
Temp Definition
°C
Dew Point Definition
°C
Rel Hum Definition
%
Precip. Amount Definition
mm

Wind Dir Definition
10's deg

Wind Spd Definition
km/h
Visibility Definition
km
Stn Press Definition
kPa
Hmdx Definition


Wind Chill Definition


Weather Definition


00:00 2.5 -6.0 53 0.0 34 18   100.27     LegendNANA
01:00 2.0 -7.2 51 0.0 1 11   100.25     LegendNANA
02:00 0.0 -6.3 63 0.0 31 1   100.25   0 LegendNANA
03:00 -1.7 -5.9 73 0.0 27 4   100.27   -3 LegendNANA
04:00 -0.9 -5.6 70 0.0 10 1   100.22   -1 LegendNANA
05:00 -0.2 -4.3 74 0.2 5 2   100.21   -1 LegendNANA
06:00 1.5 -5.3 60 0.0 2 5   100.23     LegendNANA
07:00 1.8 -5.6 58 0.0 2 8   100.25     LegendNANA
08:00 2.6 -7.5 47 0.0 4 8   100.20     LegendNANA
09:00 1.5 -3.7 68 0.0 10 8   100.21     LegendNANA
10:00 1.3 -2.2 78 0.0 13 4   100.30     LegendNANA
11:00 0.8 -2.4 79 0.2 31 10   100.33     LegendNANA
12:00 1.8 -2.8 72 0.0 32 11   100.34     LegendNANA
13:00 4.0 -1.3 68 0.0 31 15   100.30     LegendNANA
14:00 4.9 -4.0 53 0.0 29 20   100.27     LegendNANA
15:00 5.5 -6.0 43 0.0 29 15   100.18     LegendNANA
16:00 5.5 -5.6 44 0.0 26 15   100.17     LegendNANA
17:00 5.4 -5.1 47 0.0 20 13   100.14     LegendNANA
18:00 4.8 -5.5 48 0.0 22 10   100.14     LegendNANA
19:00 3.9 -3.7 57 0.0 22 10   100.12     LegendNANA
20:00 3.5 -2.0 67 0.0 21 8   100.10     LegendNANA
21:00 3.2 -1.3 72 0.0 21 8   100.08     LegendNANA
22:00 3.0 -1.6 72 0.0 24 6   100.06     LegendNANA
23:00 3.2 -9.4 39 0.0 35 10   100.04     LegendNANA

Notes on Data Quality.

Legend

  • E = Estimated
  • M = Missing
  • NA = Not Available*
  • [empty] = Indicates an unobserved value
Date modified: